Location: Newark
(41.0400°S, 62.7845°W)
Time: 18:55:40
(UTC+00:00)

ISS - Pass Details

Date: 30 October 2021
Orbit: 417 x 423 km, 51.6° (Epoch: 29 November)

Event Time Altitude Azimuth Distance (km) Brightness Sun altitude
Rises 01:19:19 0° 237° (WSW) 2,414 1.4 -24.4°
Reaches altitude 10° 01:21:28 10° 240° (WSW) 1,543 0.0 -24.7°
Enters shadow 01:23:33 33° 252° (WSW) 758 -2.0 -25.0°
